Wind_Speed
22 21 20 18 17 15 13 10 8 5 4 4 3 4 5 6 8 10 11 12 14 14 15 16 16 16 15 15 15 14 13 12 11 10 10 9 7 6 4 4 3 1 0 1
24 23 22 22 20 18 16 13 12 9 8 6 4 3 3 6 7 8 9 10 12 13 13 14 15 15 14 14 14 14 13 12 11 10 9 9 8 7 5 4 3 2 1 2
25 25 25 25 23 21 20 17 14 13 11 9 7 5 5 6 7 7 7 9 10 11 12 13 13 13 13 13 12 12 12 11 11 10 9 9 8 7 5 5 4 3 2 1
27 27 27 26 25 24 22 19 17 15 15 12 10 8 6 6 7 8 7 7 9 10 10 11 12 12 12 12 11 12 11 11 11 10 9 9 8 7 6 5 4 4 3 3
28 28 28 27 26 26 24 23 21 18 17 15 14 12 9 8 8 9 8 7 8 8 9 10 10 10 11 11 10 11 11 10 10 10 9 9 8 7 6 5 4 4 4 4
28 28 29 28 28 27 26 25 23 21 20 19 16 16 12 10 10 10 9 8 8 8 8 9 9 9 9 9 9 9 9 9 9 9 9 9 8 8 7 7 5 4 4 4
27 28 28 28 29 29 28 27 26 25 24 22 19 19 16 13 11 11 10 9 8 8 8 8 9 8 9 9 8 9 9 9 9 9 9 9 8 8 8 7 7 6 6 6
28 28 28 28 29 29 29 28 27 26 25 23 23 22 19 15 13 13 12 11 10 8 8 8 8 9 8 8 8 8 9 9 9 9 9 9 8 8 8 8 8 8 8 8
28 27 28 28 28 30 30 29 28 27 26 25 25 24 21 18 16 14 13 13 12 10 9 9 9 9 8 8 7 7 8 9 9 9 9 9 9 9 9 9 9 9 9 8
28 28 28 29 30 30 30 30 29 28 27 26 26 25 22 19 17 15 15 14 13 12 11 10 10 10 9 8 8 8 8 9 9 10 10 10 9 9 10 10 9 10 9 9
28 28 28 29 30 30 30 30 30 29 28 27 26 24 21 19 18 16 16 15 14 13 13 12 11 10 10 10 9 9 9 9 10 10 10 10 10 10 10 10 10 10 10 10
28 28 29 29 30 30 30 30 30 30 29 28 27 25 21 19 19 18 17 16 16 15 13 13 11 11 11 11 10 10 10 10 11 11 11 11 11 11 11 11 11 11 11 12
30 30 29 30 30 30 30 31 30 30 30 30 29 27 23 21 20 19 18 18 18 16 15 15 14 13 12 11 11 11 11 11 12 12 12 13 13 13 13 13 13 13 13 13
30 31 31 31 30 30 30 30 30 30 30 30 30 28 26 25 23 21 20 20 20 19 18 18 17 15 14 13 13 13 13 13 13 14 14 15 15 15 15 15 14 14 15 15
31 31 31 31 31 31 31 31 31 31 31 30 29 29 28 26 25 24 23 22 23 22 21 21 20 18 17 16 16 16 16 17 16 16 16 16 17 17 17 17 17 17 17 17
33 33 33 32 32 33 33 33 33 32 32 32 31 30 29 28 27 26 25 25 25 24 24 24 23 22 20 19 18 19 19 18 19 19 18 18 19 20 20 20 20 19 19 19
34 34 34 34 33 34 35 34 35 35 35 34 34 33 31 31 30 29 29 28 27 27 26 25 24 22 22 22 22 22 22 21 21 21 21 21 21 22 22 21 21 22 21 21
35 36 36 37 36 36 35 35 36 36 36 36 36 35 34 33 32 31 31 31 30 29 28 27 27 26 25 24 24 24 24 24 24 25 25 25 25 24 23 23 23 23 23 22
36 37 37 37 37 39 38 36 37 37 38 37 38 37 37 36 35 34 32 32 32 31 31 30 28 27 27 26 26 26 26 26 26 26 26 26 27 26 24 24 24 24 24 24
38 39 40 39 39 39 38 38 38 38 39 38 38 37 37 37 37 36 35 34 33 32 32 32 31 31 29 29 28 28 27 28 28 28 27 28 28 27 26 26 25 25 25 25
39 39 40 40 40 40 39 38 38 38 39 38 38 38 38 37 37 37 37 37 37 36 34 34 34 33 32 31 30 30 30 30 30 30 30 30 30 29 29 28 27 27 26 26
38 39 39 39 40 39 38 37 38 38 38 38 38 39 39 39 39 39 39 39 38 38 37 36 36 36 35 34 33 33 33 33 33 32 32 32 31 30 30 30 30 29 28 27
37 37 38 39 39 38 38 38 38 38 39 39 39 39 40 40 41 40 41 41 40 39 38 38 38 38 38 37 36 36 35 34 34 33 33 34 33 32 33 33 33 32 31 29
35 36 37 38 37 37 38 38 37 37 37 38 39 39 40 41 40 41 41 41 41 40 40 40 40 40 39 39 39 37 36 36 35 35 35 35 34 35 35 35 35 34 34 33
35 35 36 37 37 37 37 38 38 37 37 38 39 39 40 41 41 41 41 40 41 41 42 42 40 40 39 39 39 38 36 35 36 36 35 36 36 37 36 35 35 35 35 34
34 35 35 36 37 37 37 37 38 38 38 39 39 39 40 40 41 41 42 42 41 41 41 42 42 41 40 40 40 38 36 35 36 36 35 35 35 35 35 35 36 36 36 36
Wind_Direction
219 219 218 217 218 220 224 231 237 241 261 298 330 356 7 4 5 8 14 18 21 21 23 26 28 29 29 30 30 32 35 36 35 35 34 34 34 37 42 42 43 24 299 229
220 220 219 219 220 223 226 232 236 241 250 263 287 310 333 346 346 351 2 10 14 16 19 23 27 28 27 27 26 28 31 32 31 30 30 31 32 35 32 24 22 5 301 254
222 220 220 221 223 225 229 233 237 240 248 257 270 278 300 324 327 331 341 358 7 11 15 19 23 25 24 23 22 22 25 26 26 24 25 27 27 27 26 21 14 359 338 315
222 221 222 223 225 228 230 234 237 242 247 255 265 267 276 300 315 321 324 340 354 1 9 14 17 19 19 20 20 21 21 21 22 22 20 20 21 20 15 9 6 3 349 328
223 223 224 225 227 230 232 235 238 241 248 252 259 266 268 284 298 309 310 323 337 348 358 5 8 10 11 14 16 18 19 18 18 19 19 16 17 18 13 6 357 357 352 330
226 226 226 226 227 230 234 236 240 242 248 251 257 262 265 274 286 295 300 309 319 329 343 352 357 360 2 5 9 11 12 12 10 11 13 10 7 6 5 1 351 342 334 319
226 227 227 227 227 230 234 237 240 243 247 252 257 261 265 266 272 282 290 296 302 316 328 337 346 352 352 356 1 2 1 4 3 2 4 2 358 357 355 348 344 332 320 312
227 226 226 228 228 230 235 238 241 246 250 253 255 259 264 262 265 274 281 286 289 300 316 327 339 348 347 346 350 354 354 356 358 357 358 358 355 353 351 342 337 330 317 311
229 226 225 227 228 229 232 236 240 245 248 251 253 257 261 263 263 266 274 277 283 290 302 314 328 336 339 339 340 341 344 345 345 345 347 348 344 343 343 334 329 328 323 319
231 229 226 227 227 229 232 234 237 242 247 250 253 257 260 261 262 263 268 269 278 283 290 302 313 321 325 327 325 325 330 336 338 338 338 341 337 335 336 332 327 324 323 325
232 231 226 226 227 230 233 235 238 241 246 250 254 257 261 260 258 257 260 264 268 276 283 291 303 311 316 317 316 318 317 323 327 329 330 330 331 332 331 329 328 326 322 322
232 231 227 226 228 229 232 234 238 241 245 249 254 257 259 260 259 257 259 262 266 272 279 287 294 301 305 312 312 316 313 318 320 320 321 322 322 326 327 325 323 321 319 318
232 233 230 227 228 230 232 235 238 242 247 250 254 257 257 259 260 261 262 263 264 267 271 280 286 292 294 298 304 306 304 308 310 310 311 313 315 317 317 315 315 315 313 310
232 234 234 233 232 233 236 238 240 243 247 251 254 257 258 259 259 260 261 264 264 265 271 277 282 287 288 288 295 295 297 299 300 301 302 303 305 307 306 307 307 307 307 305
234 235 235 234 234 236 237 239 242 244 248 251 253 256 258 258 258 260 260 262 264 267 271 274 276 280 283 285 289 290 293 294 294 295 295 295 297 299 299 299 299 298 300 299
238 239 238 238 238 240 241 241 243 245 248 250 251 254 256 257 257 258 259 261 263 266 270 274 278 277 279 284 286 289 291 292 292 292 289 289 291 292 291 292 293 293 294 297
241 243 242 242 243 244 245 244 246 247 248 251 252 254 254 255 256 257 258 261 262 265 269 272 275 277 279 281 284 286 288 290 292 294 290 288 287 289 288 287 290 289 291 295
242 243 246 246 245 246 248 248 248 249 250 251 253 254 254 255 254 255 256 259 260 262 266 268 268 272 275 277 278 281 284 288 288 289 291 288 285 284 284 283 285 287 288 290
244 246 248 250 250 249 249 251 252 252 252 253 253 254 255 255 254 254 256 259 260 262 263 264 265 266 270 274 275 278 281 284 286 286 287 287 287 283 280 281 283 284 285 287
247 249 251 252 254 254 252 252 253 254 254 253 253 253 254 255 254 255 256 257 259 261 261 261 263 265 267 272 275 277 279 281 283 284 285 287 287 284 282 282 284 282 283 284
248 250 251 253 255 256 255 255 255 256 256 254 254 254 253 254 256 257 257 257 259 260 261 262 263 265 268 270 273 276 276 278 281 283 282 282 284 283 283 283 282 281 280 283
249 250 252 253 255 257 257 257 257 257 256 255 255 255 255 255 256 256 256 258 260 259 261 262 264 267 267 270 272 275 275 277 278 279 280 280 281 280 281 283 283 283 280 282
249 250 252 253 255 257 257 257 257 257 257 256 256 256 256 256 255 256 257 258 258 258 260 262 264 267 269 270 271 274 274 276 276 278 279 279 279 278 279 280 282 284 283 282
250 251 253 254 254 255 256 257 258 258 257 256 256 256 256 256 255 255 256 257 256 256 259 261 264 266 268 270 271 271 272 275 277 278 277 277 278 278 278 279 280 282 284 284
251 252 253 254 255 255 256 257 258 258 258 256 256 255 255 256 256 256 256 256 256 257 258 261 264 266 266 268 270 270 270 272 275 276 275 276 276 277 277 279 281 282 284 284
252 254 256 255 255 256 255 256 256 257 257 257 257 258 258 257 257 258 258 258 258 258 259 261 262 265 266 266 268 267 268 271 273 273 273 274 274 277 277 280 281 283 285 285
Height
5910 5914 5915 5917 5919 5920 5921 5922 5922 5923 5924 5923 5923 5924 5924 5923 5922 5921 5919 5917 5915 5913 5911 5908 5906 5904 5902 5900 5898 5896 5895 5893 5892 5891 5890 5889 5888 5887 5886 5886 5885 5885 5885 5885
5908 5911 5913 5914 5916 5918 5919 5921 5922 5923 5923 5923 5923 5923 5923 5922 5922 5921 5920 5918 5916 5914 5912 5910 5907 5905 5904 5902 5900 5898 5896 5895 5894 5892 5891 5890 5889 5888 5887 5886 5886 5885 5885 5885
5904 5908 5909 5911 5913 5915 5917 5919 5920 5921 5921 5921 5922 5923 5923 5922 5922 5921 5920 5918 5917 5915 5913 5911 5908 5906 5905 5903 5901 5899 5898 5896 5895 5893 5892 5891 5890 5889 5888 5887 5887 5886 5885 5885
5900 5903 5906 5908 5911 5913 5915 5916 5918 5918 5919 5920 5921 5921 5922 5921 5921 5920 5919 5918 5917 5915 5913 5911 5909 5907 5905 5904 5902 5900 5899 5897 5896 5894 5893 5891 5890 5890 5889 5888 5887 5886 5886 5885
5896 5899 5901 5904 5907 5909 5911 5913 5914 5916 5916 5918 5918 5919 5921 5920 5920 5919 5919 5918 5916 5915 5913 5911 5909 5908 5906 5905 5903 5901 5900 5898 5896 5895 5893 5892 5891 5890 5889 5888 5887 5886 5886 5885
5891 5894 5897 5901 5903 5905 5907 5910 5911 5912 5913 5915 5916 5916 5918 5919 5919 5918 5917 5917 5916 5914 5913 5911 5910 5908 5906 5905 5903 5902 5900 5899 5897 5896 5894 5893 5891 5890 5889 5888 5887 5886 5886 5885
5887 5890 5893 5896 5899 5901 5903 5906 5908 5908 5910 5911 5913 5913 5915 5917 5917 5916 5916 5915 5914 5913 5912 5911 5909 5908 5906 5905 5903 5902 5901 5899 5898 5896 5895 5893 5892 5890 5889 5888 5887 5886 5885 5884
5882 5886 5889 5891 5894 5897 5898 5901 5904 5905 5906 5908 5909 5909 5912 5914 5914 5914 5913 5913 5912 5912 5911 5910 5909 5907 5906 5904 5903 5902 5900 5899 5898 5896 5895 5893 5892 5890 5889 5888 5887 5886 5884 5883
5877 5881 5884 5886 5889 5892 5894 5896 5899 5901 5902 5903 5904 5906 5908 5910 5911 5911 5911 5911 5910 5910 5909 5908 5907 5906 5904 5903 5902 5901 5900 5899 5897 5896 5894 5893 5891 5890 5889 5888 5886 5885 5883 5882
5872 5876 5879 5881 5884 5886 5889 5891 5894 5895 5897 5898 5900 5902 5904 5906 5907 5908 5908 5908 5908 5907 5907 5906 5905 5904 5903 5902 5901 5900 5899 5897 5896 5895 5894 5892 5891 5889 5888 5887 5885 5884 5883 5881
5866 5870 5874 5876 5878 5881 5884 5886 5888 5890 5892 5894 5895 5899 5900 5902 5903 5904 5905 5904 5904 5904 5904 5904 5903 5902 5901 5900 5899 5898 5897 5896 5895 5894 5892 5891 5889 5888 5887 5885 5884 5883 5882 5880
5861 5864 5867 5871 5873 5875 5878 5880 5883 5886 5887 5889 5890 5896 5896 5897 5898 5899 5901 5901 5901 5901 5901 5900 5900 5899 5898 5897 5897 5896 5895 5894 5893 5892 5891 5890 5888 5886 5885 5884 5883 5882 5880 5879
5855 5858 5862 5865 5869 5870 5872 5875 5877 5880 5882 5883 5885 5890 5890 5892 5894 5895 5896 5896 5897 5897 5897 5897 5896 5896 5895 5895 5894 5893 5892 5892 5891 5890 5889 5888 5886 5884 5883 5882 5880 5879 5878 5877
5849 5851 5856 5860 5862 5865 5867 5869 5872 5874 5875 5877 5880 5883 5885 5886 5888 5890 5891 5891 5892 5893 5893 5893 5893 5893 5892 5891 5891 5889 5889 5888 5887 5886 5885 5884 5883 5881 5880 5879 5878 5876 5875 5873
5842 5845 5848 5852 5855 5858 5861 5863 5866 5868 5869 5871 5874 5876 5879 5881 5882 5884 5885 5886 5887 5888 5888 5889 5889 5888 5888 5887 5886 5885 5884 5884 5883 5882 5881 5880 5879 5877 5876 5875 5874 5872 5871 5869
5835 5838 5842 5845 5848 5851 5853 5856 5859 5861 5863 5865 5867 5870 5872 5874 5876 5878 5879 5880 5881 5882 5883 5883 5883 5882 5882 5882 5882 5881 5881 5880 5879 5878 5876 5875 5874 5873 5871 5870 5869 5868 5866 5864
5828 5831 5834 5837 5840 5843 5846 5849 5851 5854 5856 5858 5860 5863 5865 5867 5869 5871 5872 5873 5874 5876 5876 5877 5877 5876 5877 5877 5877 5876 5876 5875 5873 5872 5871 5869 5868 5866 5865 5864 5863 5862 5861 5859
5821 5823 5826 5829 5832 5834 5840 5841 5843 5845 5848 5850 5852 5855 5857 5859 5861 5863 5865 5866 5867 5868 5869 5869 5869 5870 5871 5870 5870 5870 5869 5869 5868 5866 5865 5863 5861 5859 5857 5856 5856 5855 5854 5853
5812 5815 5817 5820 5822 5825 5830 5832 5834 5837 5839 5842 5844 5846 5848 5850 5852 5855 5856 5858 5859 5860 5861 5862 5862 5862 5863 5863 5862 5862 5862 5861 5860 5859 5857 5855 5854 5851 5849 5849 5849 5848 5848 5847
5803 5806 5809 5810 5813 5816 5821 5823 5824 5827 5829 5832 5834 5837 5839 5841 5843 5846 5847 5849 5850 5852 5853 5853 5854 5854 5854 5855 5855 5855 5854 5854 5853 5851 5850 5848 5847 5844 5843 5842 5841 5841 5840 5839
5794 5796 5798 5801 5803 5806 5810 5813 5815 5818 5821 5822 5824 5827 5829 5831 5833 5836 5837 5839 5840 5842 5843 5844 5844 5845 5846 5846 5846 5846 5846 5845 5844 5843 5842 5841 5839 5837 5836 5835 5834 5833 5833 5831
5784 5786 5789 5791 5794 5799 5800 5802 5805 5807 5809 5811 5814 5816 5819 5821 5823 5825 5827 5828 5830 5831 5833 5834 5834 5835 5836 5836 5837 5837 5837 5836 5835 5834 5833 5832 5831 5830 5828 5827 5827 5825 5824 5823
5774 5777 5779 5782 5786 5788 5789 5791 5794 5796 5799 5801 5803 5806 5808 5810 5812 5814 5816 5818 5819 5821 5822 5824 5824 5825 5825 5825 5826 5826 5826 5825 5825 5824 5824 5823 5822 5821 5821 5820 5818 5816 5815 5814
5765 5767 5769 5772 5775 5777 5779 5782 5784 5786 5788 5790 5793 5795 5797 5799 5801 5803 5805 5807 5809 5810 5812 5813 5814 5815 5815 5815 5814 5814 5814 5814 5814 5814 5814 5813 5813 5812 5811 5810 5809 5808 5807 5806
5756 5758 5760 5762 5765 5767 5770 5771 5774 5776 5778 5780 5782 5784 5786 5788 5790 5792 5794 5796 5797 5799 5800 5802 5803 5803 5804 5804 5804 5803 5803 5803 5803 5804 5803 5802 5802 5802 5801 5800 5799 5798 5797 5796
5748 5749 5751 5753 5755 5757 5759 5761 5763 5765 5767 5769 5771 5773 5775 5776 5779 5781 5783 5784 5786 5787 5788 5789 5790 5791 5792 5793 5793 5792 5791 5791 5792 5792 5792 5792 5792 5791 5791 5790 5789 5788 5787 5785